Temperature
21 20 19 18 17 17 17 16 16 16 16 16 16 16 16 16 16 16 16 15 15 15 15 15 15 14 14 14 14 14 14 14 14 14 14 14 14 14 14 14 13 13 13
22 20 19 18 17 17 16 16 16 16 16 16 16 16 16 16 16 15 15 15 15 15 14 14 14 14 13 14 14 14 14 14 14 14 14 13 13 13 13 13 13 13 13
21 20 18 17 17 16 16 16 16 16 16 16 16 16 16 15 15 15 15 14 14 14 14 14 13 13 13 13 14 14 14 14 14 14 13 13 13 12 12 12 12 12 12
20 19 18 17 16 16 16 16 16 16 16 16 15 15 15 15 15 14 14 14 14 14 13 13 13 13 13 13 13 14 14 14 13 13 13 13 12 12 12 12 12 12 12
20 18 17 16 16 16 15 15 15 15 15 15 15 15 15 14 14 14 14 14 13 13 13 13 13 13 13 13 13 13 13 13 13 12 12 12 11 11 11 11 11 11 11
19 18 17 16 16 15 15 15 15 15 15 15 15 14 14 14 14 13 13 13 13 13 13 13 12 12 12 12 13 13 13 13 12 12 12 11 11 11 11 11 11 11 11
19 17 16 16 16 15 15 15 15 15 15 15 14 14 14 14 13 13 13 13 13 13 13 12 12 12 12 12 12 12 12 12 12 11 11 11 11 11 11 11 11 11 11
18 17 16 16 15 15 15 15 15 15 14 14 14 14 13 13 13 13 13 13 13 12 12 12 12 12 12 11 12 12 12 11 11 11 11 11 11 10 10 10 10 10 10
16 16 15 15 15 15 15 15 15 14 14 14 14 14 13 13 13 13 13 12 12 12 12 12 11 11 11 11 11 11 11 11 11 11 11 10 10 10 10 10 10 10 10
15 15 15 15 15 15 15 15 14 14 14 14 13 13 13 13 12 12 12 12 12 12 12 11 11 11 11 11 11 11 11 11 11 10 10 10 10 10 10 10 10 10 10
14 15 15 15 15 14 14 14 14 14 14 13 13 13 13 12 12 12 12 12 12 12 11 11 11 11 11 11 11 11 11 10 10 10 10 10 10 9 9 9 9 9 9
14 15 14 15 14 14 14 14 14 13 13 13 13 12 12 12 12 12 12 11 11 11 11 11 11 11 11 11 11 10 10 10 10 10 10 10 9 9 9 9 9 9 9
15 14 14 14 14 14 14 14 13 13 13 13 12 12 12 12 12 11 11 11 11 11 11 11 11 11 11 10 10 10 10 10 10 10 10 9 9 9 9 9 9 8 9
14 14 14 14 14 14 14 13 13 13 13 13 12 12 12 12 12 11 11 11 11 11 11 11 11 11 10 10 10 10 10 10 10 10 9 9 9 9 9 9 8 8 8
13 14 14 14 14 14 14 13 13 13 13 12 12 12 12 12 12 12 11 11 11 11 11 11 11 10 10 10 10 10 10 10 10 10 9 9 9 9 9 8 8 8 8
13 13 13 13 14 13 13 13 13 13 13 12 12 12 12 12 12 12 11 11 11 11 11 11 10 10 10 10 10 9 9 10 10 9 9 9 9 9 9 8 8 8 8
13 13 13 13 13 13 13 13 13 13 12 12 12 12 12 12 12 12 11 11 11 11 10 10 10 10 10 9 9 9 9 9 9 9 9 9 9 9 9 9 9 8 8
13 13 13 13 13 13 13 13 13 13 12 12 12 12 12 12 12 11 11 11 11 10 10 10 10 10 9 9 9 9 9 9 9 9 9 9 9 9 9 9 9 8 8
13 13 13 13 13 13 13 12 13 12 12 12 12 12 12 12 11 11 11 11 11 10 10 10 10 10 9 9 9 9 9 9 9 9 9 9 9 9 9 9 9 9 8
13 13 13 13 13 13 12 12 12 12 12 12 12 12 12 12 11 11 11 11 11 10 10 10 10 9 9 9 9 9 9 9 9 9 9 9 9 9 9 9 9 9 9
13 13 13 13 13 13 12 12 12 12 12 12 12 12 12 12 11 11 11 11 11 10 10 10 9 9 9 9 9 8 9 9 9 9 9 9 9 9 9 9 9 9 9
13 13 13 13 13 13 13 12 12 12 12 12 12 12 12 12 11 11 11 11 11 10 10 10 10 9 9 9 9 8 8 9 9 9 9 9 9 9 9 9 9 9 9
13 13 13 13 13 13 13 12 12 12 11 11 11 12 12 12 12 12 11 11 11 11 10 10 10 9 9 9 9 9 9 9 9 9 9 9 9 9 9 9 9 9 8
13 13 13 13 13 13 12 12 12 12 12 12 12 12 12 12 12 12 11 11 11 11 11 10 10 10 9 9 9 9 9 9 9 9 9 10 9 9 9 9 9 9 8
13 14 14 13 13 13 13 13 12 12 13 12 12 12 12 12 12 12 11 11 11 11 11 10 10 10 10 9 9 9 9 9 9 9 9 10 9 9 9 9 9 9 8
13 13 14 13 13 13 13 13 13 13 13 13 13 13 13 13 12 12 12 11 11 11 11 11 10 10 10 9 9 9 9 9 9 9 9 9 9 9 9 9 9 9 8
Wind_Speed
9 14 26 27 27 26 24 24 23 23 23 23 23 22 22 21 21 20 19 19 19 19 19 19 19 19 19 19 19 19 19 19 18 18 17 16 16 16 16 16 15 14 16
13 19 27 27 27 26 25 24 23 23 23 23 23 22 22 21 21 20 20 19 19 19 18 18 18 18 18 18 18 18 18 18 18 17 16 15 15 15 15 15 15 14 16
16 20 25 27 27 26 25 24 23 23 23 23 23 22 22 21 21 20 20 19 19 19 18 18 18 18 18 18 18 18 17 17 17 16 14 13 12 14 14 15 15 15 16
16 18 22 26 27 26 25 24 24 24 24 23 23 22 22 21 21 20 20 19 19 18 18 18 18 17 17 18 18 17 17 16 15 13 12 11 10 13 14 15 15 15 16
15 16 21 27 27 26 26 25 25 24 24 23 23 22 21 21 20 20 19 19 19 18 18 17 17 17 17 17 17 17 16 15 14 13 12 11 10 12 14 14 15 15 16
15 15 21 27 27 26 26 25 25 25 24 23 23 22 21 21 20 20 19 19 19 18 17 17 17 17 17 17 17 16 16 14 13 13 11 10 9 13 14 14 14 14 15
15 14 21 27 27 27 26 26 25 24 24 23 22 22 21 21 20 20 20 19 19 18 17 17 17 16 17 16 16 15 15 13 12 11 10 8 9 13 14 15 15 15 15
15 14 18 26 26 26 26 26 25 24 24 23 23 22 22 21 21 20 20 19 18 18 17 17 16 16 16 16 15 14 13 11 11 10 8 8 10 14 14 14 14 15 15
11 12 13 18 22 25 25 26 25 24 24 23 22 22 22 21 21 20 20 19 18 17 17 16 16 15 15 15 14 13 12 11 10 8 7 7 11 13 13 13 13 13 13
10 11 11 12 16 18 21 24 24 24 24 23 22 22 21 21 21 20 19 18 18 17 17 16 16 15 15 14 14 13 12 10 9 7 7 7 11 12 12 12 12 12 12
13 10 11 12 12 14 16 21 23 23 23 23 21 22 21 17 17 18 18 18 17 17 16 16 15 15 14 13 13 12 11 9 8 6 5 8 11 11 12 12 11 11 11
18 16 13 13 13 13 13 15 16 17 18 18 18 19 16 15 15 16 18 17 17 17 16 15 15 14 12 12 11 11 10 8 7 6 5 7 9 10 11 10 10 10 11
19 17 15 15 14 13 10 10 10 11 13 15 17 18 16 15 14 14 12 13 14 14 12 13 12 12 11 10 10 9 8 7 6 5 5 6 8 9 9 9 9 10 10
16 17 16 15 14 13 11 9 9 8 9 10 15 18 15 9 9 9 8 10 10 10 11 11 10 10 10 10 10 8 7 6 5 5 4 6 7 7 8 7 8 8 8
17 17 17 16 16 14 12 10 10 9 10 12 14 17 16 10 8 8 7 9 9 10 10 9 8 8 8 8 8 7 6 6 5 5 5 6 6 6 6 6 6 7 7
19 18 17 17 16 15 12 11 10 10 11 13 13 15 17 14 10 8 7 7 8 10 10 9 8 6 5 6 5 5 5 5 4 4 4 5 5 5 5 5 5 5 5
18 18 18 18 17 16 15 13 11 10 12 11 12 16 17 16 14 10 8 6 8 10 11 9 7 7 5 4 4 4 4 4 4 3 3 4 4 4 3 3 3 3 3
16 18 18 17 18 17 15 13 11 11 11 11 13 15 16 17 16 12 8 7 10 11 9 6 5 4 4 4 3 2 2 3 3 3 3 2 2 2 2 2 2 1 1
16 17 18 18 19 18 15 13 11 11 11 11 13 13 15 17 18 13 8 8 12 8 6 6 4 4 4 4 3 2 2 1 1 2 2 2 2 1 0 1 2 2 2
16 16 18 18 18 17 14 11 10 10 10 10 11 13 16 16 17 14 9 10 11 7 6 5 5 3 4 4 4 3 2 1 0 1 2 2 2 3 3 2 1 2 2
15 17 19 19 18 16 14 14 14 13 12 11 10 14 16 16 17 13 9 9 9 8 8 8 5 5 3 3 3 2 2 1 1 1 2 2 3 4 4 4 3 3 3
17 18 18 20 20 19 16 14 11 10 9 10 9 12 16 17 17 15 11 10 9 8 9 8 6 4 3 3 4 3 1 3 2 1 1 2 3 3 4 5 5 5 5
17 19 18 19 20 20 17 13 11 9 8 9 11 12 13 17 17 15 14 11 10 10 10 9 9 8 5 3 2 4 4 3 2 2 2 2 3 2 3 5 6 7 7
17 17 18 19 20 20 19 17 18 15 14 12 12 11 13 15 16 16 15 13 12 10 11 11 9 6 7 5 2 1 2 4 3 1 2 2 3 4 4 4 5 7 8
16 16 17 18 19 20 20 21 20 16 12 8 10 13 13 13 14 15 15 14 13 11 11 11 10 8 7 6 5 3 2 2 2 2 2 3 2 3 3 4 5 6 8
13 14 15 18 19 20 21 22 22 20 16 14 14 15 14 11 12 15 15 14 13 11 12 12 12 11 9 7 6 5 5 4 4 4 3 3 3 3 2 2 3 5 7
Wind_Direction
184 173 173 168 164 161 159 156 152 149 145 142 140 137 135 132 129 126 123 120 117 114 112 111 109 106 103 100 97 94 90 86 82 79 77 78 80 78 75 73 70 67 68
163 169 171 167 165 162 161 158 155 151 147 145 142 139 137 134 131 129 126 124 120 118 116 114 112 110 106 103 100 97 93 89 84 79 75 73 78 80 77 75 74 74 72
159 167 169 167 165 163 162 159 156 153 149 146 144 142 139 137 134 131 127 125 121 118 117 116 115 113 110 107 103 99 96 91 86 80 70 64 73 82 81 77 74 72 70
160 166 167 166 164 164 163 161 158 155 151 148 145 144 142 140 136 133 129 126 122 119 118 117 116 115 112 109 106 102 99 95 88 76 63 57 68 83 82 78 75 73 72
161 165 166 166 165 165 164 163 160 156 153 150 147 146 145 143 140 136 132 128 124 122 121 120 120 118 114 112 108 105 101 94 84 72 61 54 63 82 82 80 77 75 74
163 163 167 166 166 166 165 163 159 157 155 152 149 148 148 145 142 138 134 130 127 125 125 125 123 121 118 115 111 107 102 94 81 70 59 54 64 84 84 81 78 76 76
164 164 168 168 168 167 165 163 160 159 157 155 152 152 150 147 143 138 134 132 131 131 130 128 124 123 120 117 113 110 104 95 83 71 62 58 76 85 82 78 77 76 74
165 165 168 170 169 168 166 163 162 161 159 156 154 153 151 147 142 139 138 137 136 135 134 131 127 126 123 119 115 112 106 94 83 70 62 62 82 85 81 77 75 71 69
166 165 169 171 170 168 167 164 165 163 159 156 156 154 151 148 146 144 142 141 140 139 137 134 131 128 125 121 117 113 106 96 84 71 61 67 86 85 83 78 76 72 70
171 171 169 167 166 165 165 165 164 162 159 158 157 152 149 149 149 147 144 144 142 140 138 136 133 129 126 123 119 114 107 95 83 73 61 78 88 88 86 80 76 74 73
180 178 171 167 164 161 162 164 162 161 160 158 155 149 146 146 145 144 144 146 144 143 141 138 134 126 122 122 119 114 104 97 87 72 65 83 89 89 87 81 76 76 76
186 184 177 171 166 161 162 161 161 159 158 154 150 145 141 139 139 141 145 146 146 144 142 138 133 120 112 112 114 110 105 99 85 67 71 84 91 92 89 85 81 80 78
188 184 180 175 169 164 160 156 156 152 149 146 145 142 139 135 135 137 140 142 141 138 129 122 111 110 113 115 114 111 109 99 85 68 69 81 93 95 92 88 84 83 79
190 187 181 175 171 167 160 159 155 151 150 150 150 147 143 138 136 137 133 133 131 127 118 114 111 112 113 120 122 116 110 102 93 77 71 83 96 97 97 94 91 87 80
195 190 183 177 174 169 163 162 160 157 155 152 153 153 151 148 147 142 139 137 134 132 127 122 117 114 112 116 121 121 115 110 101 86 75 80 89 96 99 95 92 88 82
199 193 185 182 177 171 169 166 163 160 157 155 158 159 157 155 153 149 146 143 143 143 137 132 128 121 115 120 118 124 124 120 111 98 87 79 77 85 95 93 87 81 81
201 194 189 185 179 175 171 168 165 163 161 161 162 163 162 160 158 155 153 153 153 147 136 126 118 114 111 111 109 119 125 126 124 116 105 94 82 72 76 86 81 74 67
201 195 192 189 183 179 174 170 167 166 164 165 165 167 166 165 163 159 159 160 156 148 140 131 125 115 115 117 118 113 112 122 134 142 133 122 108 86 62 48 35 20 19
200 196 192 191 185 181 176 171 167 167 168 168 168 170 171 169 168 165 164 162 156 148 143 143 131 129 132 128 120 98 82 101 140 161 167 176 175 169 144 4 356 340 327
200 196 194 190 187 181 175 169 167 169 172 171 173 175 173 173 171 167 165 162 158 152 150 147 135 119 127 131 107 77 41 17 75 199 219 218 220 224 227 245 283 305 309
198 197 193 191 187 182 180 180 180 183 181 178 178 176 176 175 174 171 168 164 165 166 163 151 134 127 121 127 99 58 7 354 265 248 237 230 238 239 235 236 242 256 272
198 197 194 192 189 188 188 185 183 177 180 180 177 178 180 178 177 179 172 174 172 166 161 161 146 136 136 150 130 113 17 328 302 253 243 233 240 242 239 236 235 241 252
199 197 198 194 191 192 187 179 172 167 166 178 184 186 185 182 182 181 179 175 175 174 176 174 165 154 155 173 157 146 154 218 274 303 259 243 240 235 239 239 239 243 248
203 199 198 197 193 192 188 183 182 186 190 192 187 185 183 184 184 183 180 179 179 180 178 179 174 163 154 166 165 125 141 150 156 288 305 272 248 239 238 236 240 245 248
203 200 198 197 196 192 192 189 188 194 193 176 175 179 182 185 185 184 183 182 183 183 181 178 175 173 168 167 166 153 131 103 132 159 262 293 292 252 236 234 239 245 248
203 199 196 196 198 194 194 194 193 194 186 178 181 185 186 186 188 187 185 186 186 184 183 183 182 182 182 175 174 167 163 164 181 176 210 246 264 275 259 243 237 245 248
Height
1464 1468 1472 1477 1481 1485 1489 1492 1495 1498 1501 1504 1507 1509 1512 1514 1516 1518 1520 1521 1523 1524 1526 1527 1528 1529 1530 1531 1532 1532 1533 1533 1534 1534 1534 1534 1535 1535 1535 1535 1535 1535 1535
1461 1466 1470 1475 1480 1484 1488 1492 1495 1498 1501 1504 1507 1509 1512 1514 1516 1518 1520 1521 1523 1524 1526 1527 1528 1529 1530 1531 1532 1532 1533 1534 1534 1534 1535 1535 1535 1535 1535 1536 1536 1536 1536
1460 1464 1469 1473 1478 1483 1487 1491 1494 1498 1501 1504 1506 1509 1511 1514 1516 1518 1520 1521 1523 1524 1526 1527 1528 1529 1530 1531 1532 1533 1533 1534 1534 1535 1535 1536 1536 1536 1536 1536 1537 1537 1537
1459 1463 1467 1472 1477 1482 1486 1490 1494 1497 1500 1503 1506 1509 1511 1514 1516 1518 1520 1521 1523 1524 1526 1527 1528 1530 1531 1532 1532 1533 1534 1534 1535 1536 1536 1537 1537 1538 1537 1537 1538 1538 1537
1459 1462 1466 1472 1476 1481 1486 1490 1493 1497 1500 1503 1506 1508 1511 1513 1516 1518 1520 1521 1523 1524 1526 1527 1528 1530 1531 1532 1533 1534 1535 1535 1536 1537 1537 1538 1538 1539 1539 1539 1539 1539 1539
1457 1462 1466 1471 1476 1480 1485 1489 1493 1496 1500 1503 1505 1508 1511 1513 1515 1518 1519 1521 1523 1524 1526 1527 1529 1530 1531 1533 1534 1535 1535 1536 1537 1538 1538 1539 1540 1540 1540 1540 1540 1540 1540
1456 1461 1465 1470 1475 1480 1484 1488 1492 1495 1499 1502 1505 1508 1510 1513 1515 1517 1519 1521 1523 1524 1526 1527 1529 1530 1532 1533 1534 1535 1536 1537 1538 1539 1540 1540 1541 1542 1542 1542 1542 1541 1541
1456 1460 1465 1470 1474 1479 1483 1487 1491 1495 1498 1501 1504 1507 1510 1512 1515 1517 1519 1521 1523 1524 1526 1528 1529 1531 1533 1534 1535 1536 1537 1538 1539 1540 1541 1542 1542 1543 1543 1543 1543 1543 1542
1457 1461 1464 1469 1473 1478 1482 1486 1490 1494 1497 1500 1504 1506 1509 1512 1514 1516 1518 1521 1523 1524 1526 1528 1530 1532 1533 1535 1536 1537 1538 1539 1540 1541 1542 1543 1544 1544 1544 1544 1544 1544 1543
1457 1461 1464 1468 1472 1476 1481 1485 1488 1492 1496 1499 1503 1505 1508 1511 1514 1516 1518 1520 1523 1524 1526 1528 1530 1532 1534 1535 1537 1538 1539 1540 1541 1542 1543 1544 1544 1545 1545 1545 1545 1544 1544
1456 1460 1463 1466 1470 1474 1479 1483 1487 1491 1494 1498 1501 1504 1507 1510 1513 1515 1517 1520 1522 1524 1526 1529 1531 1532 1534 1536 1537 1539 1540 1541 1542 1543 1544 1545 1545 1546 1546 1546 1545 1545 1545
1452 1456 1460 1464 1468 1472 1477 1481 1485 1489 1493 1496 1500 1503 1506 1509 1512 1514 1517 1520 1522 1524 1527 1529 1531 1532 1534 1536 1538 1539 1541 1542 1543 1544 1545 1546 1546 1546 1547 1546 1546 1546 1546
1447 1451 1456 1461 1465 1469 1474 1478 1482 1486 1490 1494 1498 1501 1504 1508 1511 1513 1516 1519 1521 1524 1526 1528 1530 1532 1535 1537 1538 1540 1541 1543 1544 1544 1545 1546 1547 1547 1547 1547 1547 1547 1547
1445 1448 1453 1457 1462 1466 1471 1475 1479 1483 1487 1491 1495 1499 1502 1506 1509 1512 1515 1518 1521 1523 1525 1528 1530 1533 1535 1537 1539 1540 1542 1543 1544 1545 1546 1547 1547 1548 1548 1548 1548 1548 1547
1442 1445 1449 1454 1458 1463 1468 1472 1477 1481 1485 1489 1493 1497 1501 1504 1507 1511 1514 1517 1520 1523 1525 1528 1530 1533 1535 1537 1539 1541 1542 1543 1544 1545 1546 1547 1548 1548 1549 1549 1549 1548 1548
1438 1442 1446 1450 1455 1459 1464 1469 1473 1478 1482 1487 1491 1495 1499 1503 1506 1510 1513 1516 1520 1522 1525 1528 1530 1532 1535 1537 1539 1541 1542 1543 1544 1545 1546 1547 1548 1548 1549 1549 1549 1549 1548
1434 1438 1442 1447 1451 1456 1461 1466 1470 1475 1480 1484 1488 1493 1497 1501 1505 1508 1512 1515 1519 1522 1524 1527 1530 1532 1535 1537 1539 1540 1542 1543 1544 1545 1546 1547 1548 1548 1549 1549 1549 1549 1548
1430 1434 1439 1443 1447 1452 1457 1462 1467 1472 1477 1482 1486 1490 1495 1499 1503 1507 1511 1514 1517 1520 1523 1526 1529 1531 1534 1536 1538 1540 1541 1543 1544 1545 1546 1547 1547 1548 1548 1548 1548 1548 1548
1425 1429 1434 1439 1443 1448 1454 1459 1464 1469 1474 1479 1483 1488 1492 1496 1501 1505 1509 1512 1516 1519 1522 1525 1528 1530 1533 1535 1538 1539 1541 1542 1543 1544 1545 1546 1547 1547 1547 1547 1547 1547 1547
1420 1425 1430 1435 1439 1445 1451 1456 1461 1466 1471 1475 1480 1484 1489 1493 1498 1502 1507 1510 1514 1517 1520 1523 1527 1530 1532 1535 1537 1538 1540 1541 1542 1543 1544 1545 1545 1546 1546 1546 1546 1546 1546
1415 1419 1424 1429 1434 1440 1445 1450 1455 1460 1465 1471 1476 1481 1485 1490 1495 1499 1503 1507 1511 1514 1518 1522 1525 1528 1530 1533 1535 1537 1539 1540 1540 1541 1542 1543 1544 1544 1544 1545 1545 1544 1544
1408 1413 1418 1424 1428 1434 1439 1445 1451 1456 1462 1467 1472 1477 1481 1486 1491 1496 1500 1504 1508 1512 1516 1519 1522 1525 1528 1531 1533 1535 1537 1539 1538 1539 1540 1541 1542 1542 1542 1543 1543 1542 1542
1402 1406 1412 1417 1422 1428 1434 1441 1448 1454 1458 1463 1467 1471 1476 1482 1487 1492 1496 1501 1505 1508 1512 1516 1520 1523 1525 1529 1531 1534 1535 1535 1536 1537 1537 1538 1539 1540 1540 1540 1540 1540 1539
1395 1400 1406 1412 1417 1423 1429 1434 1440 1444 1448 1453 1459 1465 1472 1477 1483 1488 1492 1497 1501 1505 1509 1513 1517 1520 1523 1526 1528 1531 1533 1534 1535 1535 1536 1536 1537 1537 1537 1538 1538 1537 1537
1390 1395 1400 1406 1412 1417 1422 1428 1433 1439 1444 1450 1456 1462 1467 1473 1478 1483 1488 1493 1497 1501 1505 1509 1513 1517 1520 1523 1525 1527 1530 1531 1533 1534 1534 1534 1535 1535 1535 1535 1535 1534 1534
1385 1390 1394 1400 1405 1411 1416 1421 1427 1433 1439 1445 1450 1456 1462 1467 1473 1478 1483 1488 1492 1497 1501 1505 1509 1513 1516 1519 1522 1525 1527 1529 1530 1531 1532 1531 1532 1532 1532 1532 1531 1531 1530